Date String (YYYY-MM-DD hh:mm:ss) UTC,Instrument flags,Ambient pressure (hPa),Sample flow (lpm),Bypass flow (lpm),Sample temperature (°C),Ambient temperature (°C),ASC tube jacket temperature (°C),LED temperature (°C),Box temperature (°C),Sample RH (%),Span deviation,Mass concentration (μg/m³),Mass concentration (μg/m³),Mass concentration (μg/m³)
DateTimeUTC,F1_M11,P_M11,Q1_M11,Q2_M11,T1_M11,T2_M11,T3_M11,T4_M11,T5_M11,U1_M11,ZSPAN_M11,X2_M11,X0_M11,X1_M11
2022-02-06 01:00:00,,0825.4,5.00,0.00,22.1,21.3,00.0,31.2,23.8,07.5,0000.0,0000.68,0001.36,0000.45
2022-02-06 01:01:00,,0825.5,5.00,0.00,22.1,21.2,00.0,31.2,23.7,07.7,0000.0,0000.67,0001.34,0000.45
2022-02-06 01:02:00,,0825.5,4.99,0.00,22.0,21.3,00.0,31.2,23.7,07.8,0000.0,0000.68,0001.36,0000.46
2022-02-06 01:03:00,,0825.5,5.02,0.00,22.0,21.3,00.0,31.2,23.7,07.6,0000.0,0000.67,0001.23,0000.45
2022-02-06 01:04:00,,0825.5,4.99,0.00,22.0,21.3,00.0,31.1,23.7,07.7,0000.0,0000.66,0001.15,0000.45
2022-02-06 01:05:00,,0825.5,5.00,0.00,22.0,21.3,00.0,31.1,23.7,07.8,0000.0,0000.68,0001.61,0000.45
2022-02-06 01:06:00,,0825.5,5.01,0.00,22.0,21.3,00.0,31.1,23.7,07.9,0000.0,0000.70,0002.25,0000.45
2022-02-06 01:07:00,,0825.5,5.00,0.00,22.0,21.3,00.0,31.1,23.7,07.8,0000.0,0000.69,0002.26,0000.45
2022-02-06 01:08:00,,0825.5,5.00,0.00,22.0,21.2,00.0,31.1,23.7,07.6,0000.0,0000.71,0002.37,0000.46
2022-02-06 01:09:00,,0825.5,5.01,0.00,22.0,21.2,00.0,31.1,23.6,07.4,0000.0,0000.69,0002.29,0000.46
2022-02-06 01:10:00,,0825.5,4.99,0.00,22.0,21.2,00.0,31.1,23.6,07.2,0000.0,0000.68,0002.26,0000.45
2022-02-06 01:11:00,,0825.6,5.00,0.00,22.0,21.2,00.0,31.1,23.6,07.3,0000.0,0000.69,0002.31,0000.45
2022-02-06 01:12:00,,0825.7,5.00,0.00,22.0,21.2,00.0,31.1,23.6,07.2,0000.0,0000.70,0002.34,0000.46
2022-02-06 01:13:00,,0825.6,5.02,0.00,21.9,21.2,00.0,31.1,23.6,07.4,0000.0,0000.69,0002.31,0000.47
2022-02-06 01:14:00,,0825.6,4.99,0.00,21.9,21.1,00.0,31.1,23.5,07.6,0000.0,0000.68,0002.27,0000.47
2022-02-06 01:15:00,,0825.7,5.01,0.00,21.9,21.1,00.0,31.0,23.5,07.2,0000.0,0000.67,0002.17,0000.47
2022-02-06 01:16:00,,0825.7,4.98,0.00,21.9,21.1,00.0,31.0,23.5,07.1,0000.0,0000.66,0001.68,0000.47
2022-02-06 01:17:00,,0825.6,5.02,0.00,21.9,21.1,00.0,31.0,23.6,07.4,0000.0,0000.64,0001.09,0000.47
2022-02-06 01:18:00,,0825.6,4.99,0.00,21.9,21.2,00.0,31.0,23.6,07.4,0000.0,0000.63,0001.07,0000.48
2022-02-06 01:19:00,,0825.7,5.00,0.00,21.9,21.2,00.0,31.0,23.6,07.5,0000.0,0000.61,0001.03,0000.47
2022-02-06 01:20:00,,0825.6,5.00,0.00,21.9,21.2,00.0,31.0,23.6,07.5,0000.0,0000.62,0002.61,0000.47
2022-02-06 01:21:00,,0825.6,4.98,0.00,21.9,21.2,00.0,31.0,23.7,07.2,0000.0,0000.62,0003.32,0000.47
2022-02-06 01:22:00,,0825.7,5.02,0.00,21.9,21.2,00.0,31.0,23.7,07.5,0000.0,0000.61,0003.28,0000.47
2022-02-06 01:23:00,,0825.6,4.99,0.00,21.9,21.2,00.0,31.0,23.7,07.5,0000.0,0000.61,0003.27,0000.46
2022-02-06 01:24:00,,0825.5,5.00,0.00,21.9,21.2,00.0,31.0,23.6,07.4,0000.0,0000.60,0003.25,0000.46
2022-02-06 01:25:00,,0825.5,5.01,0.00,21.9,21.2,00.0,31.0,23.6,07.1,0000.0,0000.59,0003.23,0000.45
2022-02-06 01:26:00,,0825.6,4.98,0.00,21.9,21.2,00.0,31.0,23.6,07.4,0000.0,0000.61,0003.33,0000.45
2022-02-06 01:27:00,,0825.6,5.00,0.00,21.9,21.2,00.0,31.0,23.6,07.3,0000.0,0000.61,0003.35,0000.46
2022-02-06 01:28:00,,0825.7,5.01,0.00,21.9,21.2,00.0,31.0,23.6,07.2,0000.0,0000.61,0003.35,0000.46
2022-02-06 01:29:00,,0825.7,4.98,0.00,21.9,21.2,00.0,31.0,23.7,07.2,0000.0,0000.60,0003.31,0000.46
2022-02-06 01:30:00,,0825.7,5.02,0.00,21.9,21.2,00.0,31.0,23.7,07.3,0000.0,0000.59,0003.20,0000.47
2022-02-06 01:31:00,,0825.7,4.99,0.00,21.9,21.2,00.0,31.0,23.7,07.2,0000.0,0000.58,0001.55,0000.46
2022-02-06 01:32:00,,0825.8,5.00,0.00,21.9,21.2,00.0,31.0,23.7,07.5,0000.0,0000.59,0000.95,0000.46
2022-02-06 01:33:00,,0825.8,5.01,0.00,21.9,21.2,00.0,31.0,23.7,07.2,0000.0,0000.59,0000.95,0000.46
2022-02-06 01:34:00,,0825.8,4.99,0.00,21.9,21.2,00.0,31.0,23.7,07.0,0000.0,0000.62,0001.01,0000.47
2022-02-06 01:35:00,,0825.8,5.01,0.00,22.0,21.6,00.0,31.0,23.8,06.9,0000.0,0000.65,0001.07,0000.47
2022-02-06 01:36:00,,0825.8,4.98,0.00,22.1,22.4,00.0,31.0,24.1,07.0,0000.0,0000.66,0001.09,0000.47
2022-02-06 01:37:00,,0825.9,5.01,0.00,22.3,23.0,00.0,31.1,24.3,06.8,0000.0,0000.66,0001.02,0000.47
2022-02-06 01:38:00,,0825.9,5.00,0.00,22.4,23.0,00.0,31.1,24.4,06.9,0000.0,0000.65,0001.00,0000.46
2022-02-06 01:39:00,,0825.9,5.02,0.00,22.4,22.8,00.0,31.2,24.4,06.8,0000.0,0000.65,0001.05,0000.45
2022-02-06 01:40:00,,0825.9,5.00,0.00,22.4,22.6,00.0,31.2,24.4,07.1,0000.0,0000.68,0001.19,0000.45
2022-02-06 01:41:00,,0826.0,4.99,0.00,22.4,22.5,00.0,31.2,24.4,07.1,0000.0,0000.69,0001.21,0000.45
2022-02-06 01:42:00,,0826.0,5.01,0.00,22.4,22.4,00.0,31.2,24.3,06.9,0000.0,0000.70,0001.20,0000.48
2022-02-06 01:43:00,,0826.0,5.00,0.00,22.4,22.3,00.0,31.3,24.3,07.0,0000.0,0000.74,0001.28,0000.49
2022-02-06 01:44:00,,0826.0,4.99,0.00,22.5,22.2,00.0,31.3,24.3,07.1,0000.0,0000.78,0001.36,0000.51
2022-02-06 01:45:00,,0826.0,5.00,0.00,22.5,22.1,00.0,31.3,24.3,07.5,0000.0,0000.80,0001.36,0000.53
2022-02-06 01:46:00,,0826.0,5.01,0.00,22.5,22.1,00.0,31.3,24.3,07.6,0000.0,0000.80,0001.38,0000.55
2022-02-06 01:47:00,,0826.0,4.99,0.00,22.5,22.0,00.0,31.3,24.3,07.6,0000.0,0000.87,0001.58,0000.58
2022-02-06 01:48:00,,0826.0,5.00,0.00,22.5,22.0,00.0,31.3,24.3,07.6,0000.0,0000.92,0001.65,0000.64
2022-02-06 01:49:00,,0826.0,4.99,0.00,22.5,21.9,00.0,31.3,24.3,07.7,0000.0,0001.02,0001.93,0000.70
2022-02-06 01:50:00,,0826.0,5.00,0.00,22.4,21.9,00.0,31.3,24.2,07.8,0000.0,0001.10,0002.02,0000.78
2022-02-06 01:51:00,,0826.0,4.98,0.00,22.4,21.8,00.0,31.4,24.2,08.1,0000.0,0001.16,0002.84,0000.85
2022-02-06 01:52:00,,0826.0,5.00,0.00,22.4,21.8,00.0,31.4,24.1,08.3,0000.0,0001.32,0003.79,0000.97
2022-02-06 01:53:00,,0826.0,5.01,0.00,22.4,21.7,00.0,31.4,24.1,08.3,0000.0,0001.44,0003.95,0001.09
2022-02-06 01:54:00,,0826.0,5.00,0.00,22.3,21.6,00.0,31.3,24.1,08.1,0000.0,0001.56,0004.17,0001.20
2022-02-06 01:55:00,,0826.0,5.01,0.00,22.3,21.6,00.0,31.3,24.0,08.0,0000.0,0001.63,0004.24,0001.30
2022-02-06 01:56:00,,0826.0,4.99,0.00,22.2,21.5,00.0,31.3,23.9,08.0,0000.0,0001.71,0004.31,0001.41
2022-02-06 01:57:00,,0826.0,5.02,0.00,22.2,21.4,00.0,31.3,23.9,08.1,0000.0,0001.83,0004.42,0001.51
2022-02-06 01:58:00,,0826.0,4.99,0.00,22.2,21.4,00.0,31.3,23.8,08.0,0000.0,0001.87,0004.35,0001.59
2022-02-06 01:59:00,,0826.0,5.01,0.00,22.1,21.4,00.0,31.3,23.8,08.1,0000.0,0001.93,0005.16,0001.65
